Location: Zagreb
(45.8000°N, 16.0000°E)
Time: 15:52:16
(UTC+02:00)

Transit 2A - Pass Details

Date: 19 August 2022
Orbit: 601 x 956 km, 66.7° (Epoch: 25 September)

Event Time Altitude Azimuth Distance (km) Brightness Sun altitude
Rises 18:11:39 0° 333° (NNW) 2,860 9.3 17.3°
Reaches altitude 10° 18:14:08 10° 346° (NNW) 1,959 8.4 16.9°
Maximum altitude 18:17:57 28° 46° (NE) 1,154 6.7 16.2°
Drops below altitude 10° 18:21:53 10° 107° (ESE) 2,029 7.7 15.6°
Sets 18:24:30 0° 119° (ESE) 2,982 8.5 15.1°
